Home > Weather > Penza > Past weeks

Flag for Russia Past Weather in Penza, Russia — Yesterday and Last 2 Weeks

Now
73 °F

Clear.


Feels Like: 76 °F
Forecast: 53 / 80 °F
Wind: 3 mph from Northeast

Location: Saratov / Tsentralny

Current Time: Jul 26, 2016 at 9:08:04 PM

Latest Report: Jul 26, 2016 at 8:30 PM


Visibility: 10 mi

Pressure: 29.98 "Hg

Humidity: 61%

Dew Point: 59 °F

Location of PenzaLocation

Past Weather in Penza — Graph

°F

Penza Temperature Yesterday

Maximum temperature yesterday: 81 °F (at 1:00 PM)
Minimum temperature yesterday: 63 °F (at 1:00 AM)
Average temperature yesterday: 72 °F

High & Low Weather Summary for the Past Weeks

 TemperatureHumidityPressure
High95 °F (Jul 14, 3:00 PM)100% (Jul 22, 5:00 AM)30.04 "Hg (Jul 22, 5:00 AM)
Low63 °F (Jul 23, 5:00 PM)30% (Jul 14, 3:00 PM)29.68 "Hg (Jul 19, 6:00 PM)
Average77 °F61%29.87 "Hg
* Reported Jul 11 8:00 PM — Jul 26 8:00 PM, Penza, Weather by CustomWeather, © 2016

Note: Actual official high and low records may vary slightly from our data, if they occured in-between our weather recording intervals... More about our weather records

Advertising

Penza Weather History for the Previous 24 Hours

Scroll right to see more
 ConditionsComfort  
Time TempWeatherWind HumidityBarometerVisibility
8:00 PM
Tue, Jul 26
73 °FClear.3 mph61%29.98 "Hg10 mi
7:30 PM75 °FSunny.6 mph54%29.95 "Hg10 mi
7:00 PM75 °FSunny.6 mph54%29.95 "Hg10 mi
6:30 PM77 °FSunny.10 mph51%29.95 "Hg10 mi
6:00 PM77 °FSunny.10 mph51%29.95 "Hg10 mi
5:30 PM79 °FSunny.10 mph48%29.95 "Hg10 mi
5:00 PM79 °FSunny.10 mph48%29.95 "Hg10 mi
4:30 PM79 °FSunny.10 mph45%29.95 "Hg10 mi
4:00 PM79 °FSunny.13 mph45%29.95 "Hg10 mi
3:00 PM81 °FSunny.13 mph48%29.95 "Hg10 mi
2:00 PM79 °FSunny.13 mph48%29.95 "Hg10 mi
1:00 PM79 °FSunny.10 mph48%29.95 "Hg10 mi
12:30 PM79 °FSunny.10 mph54%29.98 "Hg10 mi
12:00 PM79 °FSunny.10 mph54%29.98 "Hg10 mi
11:30 AM75 °FSunny.10 mph65%29.95 "Hg10 mi
11:00 AM75 °FSunny.10 mph65%29.98 "Hg10 mi
10:30 AM72 °FSunny.10 mph69%29.95 "Hg10 mi
10:00 AM72 °FSunny.10 mph69%29.95 "Hg10 mi
9:30 AM68 °FMore clouds than sun.10 mph78%29.95 "HgN/A
9:00 AM68 °FMore clouds than sun.10 mph78%29.95 "HgN/A
8:30 AM68 °FSunny.10 mph78%29.95 "Hg10 mi
8:00 AM68 °FSunny.8 mph78%29.95 "Hg10 mi
7:30 AM66 °FSunny.6 mph83%29.92 "Hg10 mi
7:00 AM66 °FSunny.8 mph83%29.92 "Hg10 mi
6:30 AM66 °FSunny.6 mph83%29.92 "Hg10 mi
6:00 AM66 °FSunny.8 mph83%29.92 "Hg10 mi
5:30 AM64 °FSunny.6 mph88%29.92 "Hg10 mi
5:00 AM64 °FSunny.6 mph88%29.92 "Hg10 mi
4:30 AM64 °FSunny.6 mph88%29.92 "Hg10 mi
4:00 AM64 °FClear.6 mph88%29.92 "Hg10 mi
3:00 AM66 °FClear.8 mph83%29.89 "Hg10 mi
2:00 AM68 °FClear.6 mph78%29.89 "Hg10 mi
1:00 AM68 °FPassing clouds.6 mph78%29.89 "HgN/A
12:00 AM68 °FPassing clouds.8 mph78%29.89 "HgN/A
11:00 PM
Mon, Jul 25
68 °FPartly cloudy.6 mph69%29.92 "HgN/A
10:30 PM70 °FPartly cloudy.10 mph64%29.92 "HgN/A
10:00 PM70 °FPartly cloudy.10 mph64%29.92 "HgN/A
9:30 PM70 °FPartly cloudy.8 mph69%29.89 "HgN/A
9:00 PM70 °FPartly cloudy.6 mph69%29.89 "HgN/A
Weather by CustomWeather, © 2016

See weather overviewHow to use our weather pages